Larets

operational
NORAD ID: 27944 Int'l Des: 2003-042 Owner: NIIKP Country: RU
LEOCIRCULARRETROGRADESSO

关于 Larets

正在加载描述...

实时位置

正在加载3D地球...

即将过境

高度历史

Altitude vs Time

uPlot chart will show altitude changes over time

两行轨道根数

1 27944U 03042F 26063.12519054 .00000126 00000-0 33754-4 0 9994
2 27944 98.4005 223.1969 0012424 9.9044 350.2400 14.63846928197995
Epoch: Mar 4, 2026 • Age: 10 hours

当前状态

高度 688.9 km
速度 7.52 km/s
星下点 70.08°N, 110.99°W
发射日期 Sep 27, 2003
运行时间 22.4 years
类型 other

技术详情

分类 Payload
质量 10.00 kg
干质量 10.00 kg
总质量 10.00 kg
长度 0.20 m
直径 0.20 m
跨度 0.20 m
形状 Sphere
制造商 NIIKP
阶段状态 In Orbit
所有者/国家 NIIKP/RU

大型星座

Loading constellations...